"Time","Temp","Dewpoint","Humidity","Pressure","Direction","Speed","Gust","Precip","PrecipRate"
"00:04:45","62.7","44.2","50.8","29.82","183","3.6","8.1","0.00","0.00"
"00:09:58","62.6","44.4","51.4","29.82","197","4.2","9","0.00","0.00"
"00:14:59","62.3","44.3","51.8","29.82","179","3.5","8","0.00","0.00"
"00:19:41","62.3","44.3","51.8","29.82","171","3.2","8.1","0.00","0.00"
"00:24:58","62.2","44.3","52","29.82","195","3.7","10","0.00","0.00"
"00:29:55","62.1","44.4","52.2","29.82","171","3.3","10.4","0.00","0.00"
"00:34:40","62","44.4","52.4","29.82","194","2.3","6","0.00","0.00"
"00:39:56","61.8","44.5","53","29.82","182","4.3","10.4","0.00","0.00"
"00:44:56","61.8","44.4","52.9","29.82","192","4.3","13","0.00","0.00"
"00:49:45","61.7","44.4","52.9","29.82","188","4.7","12.7","0.00","0.00"
"00:54:58","61.7","44.4","53","29.82","172","2.5","8.1","0.00","0.00"
"00:59:59","61.6","44.3","53","29.82","184","4.2","9.2","0.00","0.00"
"01:04:57","61.6","44.3","53","29.81","185","3.4","9.2","0.00","0.00"
"01:09:57","61.5","44.2","53","29.81","167","3.3","6","0.00","0.00"
"01:14:57","61.4","44.2","53.2","29.81","189","2.8","7","0.00","0.00"
"01:19:51","61.1","44.3","54","29.80","179","3.2","9.2","0.00","0.00"
"01:23:56","61","44.2","54","29.80","180","2.9","6.9","0.00","0.00"
"01:29:58","60.9","44.1","54","29.80","168","3","9.2","0.00","0.00"
"01:34:59","60.8","44","54","29.79","166","2.5","10.4","0.00","0.00"
"01:39:57","60.7","43.9","54","29.79","190","3.5","6","0.00","0.00"
"01:44:59","60.5","43.9","54.1","29.79","178","3.8","9.2","0.00","0.00"
"01:49:56","60.4","43.9","54.4","29.79","174","3.6","9.2","0.00","0.00"
"01:54:57","60.2","44","55","29.79","184","3.6","7","0.00","0.00"
"01:59:57","60.1","44","55.1","29.79","190","3.5","9","0.00","0.00"
"02:04:57","59.9","44.2","56","29.78","181","2","4","0.00","0.00"
"02:09:59","59.6","43.9","56","29.78","172","1.7","4","0.00","0.00"
"02:14:51","59.4","44.1","56.9","29.78","180","2.3","5","0.00","0.00"
"02:19:57","59.2","44","57","29.78","197","3.2","7","0.00","0.00"
"02:24:57","59.1","43.9","57","29.78","202","2.3","6","0.00","0.00"
"02:29:59","59","43.8","57","29.78","178","3.1","7","0.00","0.00"
"02:34:57","58.9","43.9","57.4","29.77","169","3.1","6.9","0.00","0.00"
"02:39:41","58.8","44.1","58.1","29.77","185","2.6","9","0.00","0.00"
"02:44:57","58.6","44.2","58.6","29.77","204","3.3","8.1","0.00","0.00"
"02:49:59","58.5","44.2","59","29.76","184","3.3","10","0.00","0.00"
"02:54:45","58.3","44","59","29.76","197","4.6","11.5","0.00","0.00"
"02:59:56","58.3","44.2","59.3","29.76","178","3.7","10.4","0.00","0.00"
"03:04:56","58.3","44","59","29.76","181","3.2","6.9","0.00","0.00"
"03:09:40","58.3","44","59","29.76","168","4.2","9.2","0.00","0.00"
"03:14:59","58.3","44.2","59.3","29.76","194","2.8","9","0.00","0.00"
"03:19:58","58.2","44.4","59.9","29.75","196","4.9","10.4","0.00","0.00"
"03:24:48","58.1","44.3","60","29.75","187","5.2","10.4","0.00","0.00"
"03:29:59","58.1","44.3","60","29.75","169","3.6","6.9","0.00","0.00"
"03:34:48","58.1","44.3","60.1","29.74","187","5.5","11.5","0.00","0.00"
"03:39:18","58","44.3","60.2","29.74","181","4.6","11.5","0.00","0.00"
"03:44:58","57.9","44.4","60.9","29.74","188","3.6","9.2","0.00","0.00"
"03:49:49","57.8","44.4","61","29.74","182","4.5","11.5","0.00","0.00"
"03:54:59","57.7","44.3","61.1","29.74","190","4.2","11.5","0.00","0.00"
"03:59:58","57.6","44.6","61.8","29.74","189","2.8","6","0.00","0.00"
"04:04:57","57.4","44.5","62.1","29.74","190","3.1","9","0.00","0.00"
"04:09:26","57.3","44.7","62.8","29.74","189","2.6","9.2","0.00","0.00"
"04:14:58","57.3","44.8","62.9","29.74","179","2.8","8.1","0.00","0.00"
"04:19:56","57.3","44.9","63.3","29.73","188","2.8","6","0.00","0.00"
"04:24:34","57.2","44.7","63","29.73","172","3.8","9.2","0.00","0.00"
"04:29:56","57.4","44.9","63","29.73","186","3.9","9.2","0.00","0.00"
"04:34:58","57.5","45","63","29.73","191","3.5","6","0.00","0.00"
"04:39:58","57.5","45","63","29.73","192","3.4","9","0.00","0.00"
"04:44:57","57.5","45.1","63.1","29.73","178","3","9","0.00","0.00"
"04:49:30","57.5","45","63","29.73","188","4.2","10.4","0.00","0.00"
"04:54:40","57.4","44.9","63","29.73","190","4.5","10.4","0.00","0.00"
"04:59:51","57.4","44.9","63","29.73","192","4.9","11.5","0.00","0.00"
"05:04:59","57.3","45","63.5","29.72","187","3.2","10.4","0.00","0.00"
"05:09:59","57.1","45","64","29.72","191","3.6","7","0.00","0.00"
"05:14:38","56.9","45","64.4","29.72","190","4.5","9","0.00","0.00"
"05:19:59","56.7","45","64.9","29.72","194","3.6","7","0.00","0.00"
"05:24:57","56.4","45","65.4","29.72","200","2.8","6","0.00","0.00"
"05:29:56","56.3","45","65.9","29.72","193","1.8","6","0.00","0.00"
"05:34:45","56","44.9","66.2","29.72","179","2.5","5","0.00","0.00"
"05:39:57","55.8","45","67","29.72","199","3","7","0.00","0.00"
"05:44:44","55.7","44.9","67","29.72","191","3.2","7","0.00","0.00"
"05:49:17","55.6","44.8","67","29.71","195","2.6","7","0.00","0.00"
"05:54:59","55.5","45.1","68","29.71","197","2.9","6","0.00","0.00"
"05:59:57","55.4","45","68","29.71","189","3.1","8.1","0.00","0.00"
"06:04:56","55.3","44.9","68","29.71","202","4.2","8.1","0.00","0.00"
"06:09:41","55.3","44.9","68","29.71","191","3","7","0.00","0.00"
"06:14:56","55.2","44.9","68.3","29.71","185","3","10.4","0.00","0.00"
"06:19:58","55.2","45.2","69","29.70","188","3.6","7","0.00","0.00"
"06:24:56","55.1","45.1","69","29.70","197","4","7","0.00","0.00"
"06:29:58","55","45.2","69.5","29.70","189","4","7","0.00","0.00"
"06:34:57","54.9","45.1","69.7","29.70","187","3.6","9.2","0.00","0.00"
"06:39:57","54.8","45.2","70","29.70","186","3.7","8.1","0.00","0.00"
"06:44:38","54.7","45.1","70.1","29.70","204","4.1","9.2","0.00","0.00"
"06:49:56","54.6","45.3","70.9","29.70","187","4","9.2","0.00","0.00"
"06:54:57","54.6","45.4","71","29.70","182","2.5","9.2","0.00","0.00"
"06:59:58","54.5","45.3","71","29.71","182","3","6","0.00","0.00"
"07:04:58","54.6","45.4","71.1","29.71","193","4.2","9.2","0.00","0.00"
"07:09:58","54.6","45.7","71.6","29.71","201","3.6","6.9","0.00","0.00"
"07:14:56","54.8","45.7","71.4","29.71","184","3","7","0.00","0.00"
"07:19:56","55.1","45.9","71","29.71","187","3.8","9.2","0.00","0.00"
"07:24:56","55.3","46.1","71","29.71","182","3.7","9.2","0.00","0.00"
"07:29:29","55.6","46.2","70.6","29.71","177","3.6","10.4","0.00","0.00"
"07:34:58","55.9","46.3","70","29.70","182","3.8","9.2","0.00","0.00"
"07:39:56","56.3","46.6","69.9","29.70","193","4.1","11","0.00","0.00"
"07:44:58","56.7","46.9","69.7","29.70","200","5.2","12","0.00","0.00"
"07:49:58","57.2","47.3","69.5","29.70","194","4.8","10.4","0.00","0.00"
"07:54:58","57.5","47.5","69.4","29.70","193","3.7","7","0.00","0.00"
"07:59:59","57.7","47.6","69","29.70","181","3.8","9","0.00","0.00"
"08:04:55","58.1","47.8","68.6","29.70","188","4","9.2","0.00","0.00"
"08:09:58","58.3","48.1","68.5","29.70","198","3.2","9.2","0.00","0.00"
"08:14:53","58.4","48.2","68.8","29.70","185","2.9","7","0.00","0.00"
"08:19:57","58.4","48.1","68.6","29.70","208","4.4","10.4","0.00","0.00"
"08:24:58","58.3","48","68.6","29.70","215","3.9","6.9","0.00","0.00"
"08:29:59","58.2","48.3","69.5","29.70","208","1.9","5.8","0.00","0.00"
"08:34:52","58.3","48.4","69.6","29.69","195","2.5","6","0.00","0.00"
"08:39:30","58.4","48.3","69","29.69","195","2.1","6","0.00","0.00"
"08:44:59","58.5","48.4","69","29.69","198","3.5","7","0.00","0.00"
"08:49:56","58.8","48.6","68.8","29.69","175","3","8","0.00","0.00"
"08:54:49","59","48.6","68.5","29.69","194","4.1","8.1","0.00","0.00"
"08:59:58","59.3","48.8","68.4","29.69","192","3.7","7","0.00","0.00"
"09:04:57","59.4","49.1","68.7","29.68","187","3.6","9.2","0.00","0.00"
"09:09:57","59.6","49.4","68.9","29.68","191","3.6","7","0.00","0.00"
"09:14:55","59.8","49.4","68.7","29.68","209","4.1","9.2","0.00","0.00"
"09:19:56","59.7","49.1","67.9","29.67","200","2.7","6","0.00","0.00"
"09:24:57","59.7","48.9","67.6","29.67","200","3.8","9.2","0.00","0.00"
"09:29:58","59.5","48.9","67.9","29.67","197","4.2","8.1","0.00","0.00"
"09:34:58","59.5","48.9","68","29.67","200","3.8","9","0.00","0.00"
"09:39:20","59.5","49","68.1","29.67","189","3.1","5.8","0.00","0.00"
"09:44:49","59.6","49.3","68.9","29.67","194","3.9","9","0.00","0.00"
"09:49:46","59.6","49.3","68.7","29.67","200","4.3","12","0.00","0.00"
"09:54:39","59.7","49.6","69.3","29.67","202","3.6","9.2","0.00","0.00"
"09:59:56","60.1","50.2","69.7","29.68","193","3.7","7","0.00","0.00"
"10:04:59","60.6","50.5","69.2","29.68","204","3.3","6.9","0.00","0.00"
"10:09:59","60.9","50.5","68.4","29.68","205","3.4","7","0.00","0.00"
"10:14:58","61","50.2","67.6","29.70","315","4","9.2","0.00","0.00"
"10:19:25","60.9","49.7","66.7","29.70","266","2.7","9.2","0.00","0.00"
"10:24:59","60.8","49.8","66.8","29.70","310","2.2","5","0.00","0.00"
"10:29:59","61.2","50","66.8","29.71","315","3.1","10.4","0.00","0.00"
"10:34:56","61.3","49.4","65","29.71","306","4.8","17","0.00","0.00"
"10:39:59","60.8","46.8","60","29.71","300","6.9","17.3","0.00","0.00"
"10:44:59","60.3","45.7","58.5","29.72","303","6.8","12.7","0.00","0.00"
"10:49:52","60.1","45.8","59.3","29.72","300","4.5","11.5","0.00","0.00"
"10:54:53","60.4","46.5","60.1","29.72","320","4.6","11","0.00","0.00"
"10:59:17","60.5","46.3","59.4","29.73","289","3.5","14","0.00","0.00"
"11:44:46","54.1","39.1","56.8","29.75","320","7.2","10.4","0.00","0.00"
"11:49:58","54.3","39.7","57.8","29.75","318","7.2","19","0.00","0.00"
"11:54:37","54.1","38.3","55.1","29.75","327","8.9","19.6","0.00","0.00"
"11:59:59","53.5","37.8","55.2","29.77","310","7.7","18.4","0.00","0.00"
"12:04:22","53","38","56.5","29.77","310","5.4","14","0.00","0.00"
"12:09:58","52.7","37.3","55.7","29.77","320","9.6","26.5","0.00","0.00"
"12:14:38","51.9","37","56.8","29.77","316","8.6","26.5","0.00","0.00"
"12:19:56","51.6","37.2","57.6","29.77","285","5.1","16.1","0.00","0.00"
"12:21:49","51.5","36.6","56.6","29.77","305","5.1","25","0.00","0.00"
"12:29:56","50.6","35.6","56.1","29.78","322","7.1","17.3","0.00","0.00"
"12:34:58","50.4","35.7","56.9","29.78","316","7.3","18.4","0.00","0.00"
"12:39:58","50.5","35.5","56.4","29.78","326","6.5","17.3","0.00","0.00"
"12:44:57","50.5","35.1","55.5","29.78","313","10.9","26.5","0.00","0.00"
"12:49:54","50.7","35.8","56.5","29.77","313","7.8","15","0.00","0.00"
"12:54:59","50.9","35.2","54.9","29.77","333","10.1","20","0.00","0.00"
"12:59:58","50.8","34.7","54","29.77","313","8.8","19","0.00","0.00"
"13:04:46","50.9","34.7","53.7","29.77","300","9.5","22","0.00","0.00"
"13:09:42","50.8","34.4","53.3","29.77","335","10.4","20","0.00","0.00"
"13:14:57","50.6","34.1","53.2","29.78","320","13.1","22","0.00","0.00"
"13:15:42","50.6","34.6","54","29.78","265","12","20.7","0.00","0.00"
"13:24:51","51","34.8","53.8","29.78","318","11","22","0.00","0.00"
"13:29:52","51.3","34.9","53.4","29.78","350","9.2","19","0.00","0.00"
"13:34:58","51.3","34.7","53","29.78","309","7.6","23","0.00","0.00"
"13:39:43","51.1","35","54.1","29.78","325","7.9","23","0.00","0.00"
"13:44:59","51.4","35.4","54.2","29.79","339","9","20","0.00","0.00"
"13:49:57","52.4","36.3","54.2","29.79","323","10.8","24","0.00","0.00"
"13:54:58","53.3","36.4","52.7","29.79","325","12","24.2","0.00","0.00"
"13:59:56","54","36.6","51.7","29.79","303","8.6","17.3","0.00","0.00"
"14:04:56","54.9","36.8","50.4","29.79","315","8.1","17","0.00","0.00"
"14:09:59","55","36.5","49.6","29.79","326","10.3","20","0.00","0.00"
"14:14:59","54.4","35.4","48.5","29.80","324","9.6","23","0.00","0.00"
"14:19:57","54.1","35.1","48.5","29.80","334","13.3","31.1","0.00","0.00"
"14:24:58","53.5","35","49.5","29.80","327","10.5","19.6","0.00","0.00"
"14:29:35","53.4","35.1","49.9","29.81","310","10.5","19.6","0.00","0.00"
"14:34:58","53.4","35","49.7","29.81","334","9.8","19.6","0.00","0.00"
"14:39:58","53.2","34.4","48.9","29.81","310","11.4","25.3","0.00","0.00"
"14:44:59","52.6","33.8","48.7","29.81","307","13.8","29","0.00","0.00"
"14:49:57","52.3","34","49.5","29.81","330","9.2","24.2","0.00","0.00"
"14:54:56","52.6","33.4","47.8","29.81","324","10.9","20.7","0.00","0.00"
"14:59:59","53","33.7","47.9","29.81","297","9.2","20","0.00","0.00"
"15:04:58","53.2","33.2","46.7","29.81","304","9.3","25.3","0.00","0.00"
"15:09:58","53.1","34.4","49","29.81","286","9.4","18.4","0.00","0.00"
"15:14:59","53","33.6","47.7","29.83","293","7.9","27","0.00","0.00"
"15:19:56","53.1","33.1","46.5","29.83","276","7.4","26.5","0.00","0.00"
"15:24:58","52.8","32.8","46.3","29.83","303","7.5","17.3","0.00","0.00"
"15:29:56","52.5","33","47.3","29.83","317","9.1","18.4","0.00","0.00"
"15:34:59","53","33.7","47.8","29.83","311","7","15","0.00","0.00"
"15:39:39","53.1","32.5","45.5","29.83","309","8.5","17","0.00","0.00"
"15:44:59","52.7","32.5","46.1","29.83","303","7.2","16.1","0.00","0.00"
"15:49:37","52.6","32","45.3","29.83","318","10.7","23","0.00","0.00"
"15:54:57","50.5","29.4","44.1","29.83","331","9.5","22","0.00","0.00"
"15:59:59","50","29.5","45","29.83","284","10","19.6","0.00","0.00"
"16:04:22","50.3","30.5","46.6","29.83","317","10.9","23","0.00","0.00"
"16:09:59","49.3","28.2","43.8","29.83","325","11.6","19.6","0.00","0.00"
"16:13:43","48.8","28","44.4","29.83","322","10.6","20","0.00","0.00"
"16:19:57","48.3","27.6","44.5","29.84","318","11.2","22","0.00","0.00"
"16:24:36","48.6","28","44.7","29.84","320","9.8","21","0.00","0.00"
"16:29:57","49.2","29.1","45.6","29.85","295","6.5","15","0.00","0.00"
"16:34:59","49.9","29.5","45.1","29.85","314","9.3","23","0.00","0.00"
"16:39:59","50.6","29.5","44.2","29.85","310","9.1","23","0.00","0.00"
"16:44:58","50.6","29.3","43.8","29.86","310","9.1","23","0.00","0.00"
"16:49:56","51","30","44.3","29.86","293","7.1","16.1","0.00","0.00"
"16:54:57","50.9","28.9","42.4","29.86","289","7.8","22","0.00","0.00"
"16:59:52","50.3","28","42","29.86","314","9.4","19.6","0.00","0.00"
"17:04:59","50.2","27.8","41.8","29.86","303","8.5","21","0.00","0.00"
"17:09:58","50.2","28.4","42.9","29.86","272","8.1","20.7","0.00","0.00"
"17:14:23","50.4","28.3","42.3","29.86","285","6.9","17.3","0.00","0.00"
"17:19:58","49.9","27.3","41.4","29.86","314","11.5","23","0.00","0.00"
"17:24:41","49.2","27.1","42.1","29.86","317","10.1","27","0.00","0.00"
"17:29:59","49","26.3","41","29.87","327","11.4","26.5","0.00","0.00"
"17:34:57","48.7","26","41","29.87","309","10.2","23","0.00","0.00"
"17:39:56","48.7","26.9","42.5","29.87","268","6.8","17.3","0.00","0.00"
"17:44:58","48.9","26.7","41.7","29.88","300","8.5","19","0.00","0.00"
"17:49:57","48.9","27.2","42.6","29.88","270","6.3","17.3","0.00","0.00"
"17:54:59","49.2","27.7","43.1","29.88","295","5.8","15","0.00","0.00"
"17:59:58","49.3","27.3","42.3","29.88","264","7.2","16.1","0.00","0.00"
"18:04:57","49","26.5","41.4","29.88","300","7.1","19.6","0.00","0.00"
"18:09:57","49","26.5","41.4","29.88","311","7.1","16.1","0.00","0.00"
"18:14:59","49.1","27.2","42.3","29.88","319","6","11.5","0.00","0.00"
"18:19:59","49.2","27.3","42.5","29.88","329","6","16.1","0.00","0.00"
"18:24:50","49","27.3","42.8","29.88","316","6.2","15","0.00","0.00"
"18:29:57","48.1","26","41.9","29.88","314","7.5","17","0.00","0.00"
"18:34:56","47.4","25.6","42.3","29.88","292","7","16","0.00","0.00"
"18:39:59","47.2","25.5","42.4","29.88","314","7.5","16.1","0.00","0.00"
"18:44:56","47.2","25.6","42.6","29.88","288","7","17.3","0.00","0.00"
"18:49:57","46.9","25.8","43.5","29.88","305","6.2","12.7","0.00","0.00"
"18:54:55","46.6","25.9","44.1","29.88","302","4.1","11.5","0.00","0.00"
"18:59:56","46.4","25.9","44.5","29.89","310","3.2","10.4","0.00","0.00"
"19:04:59","46.2","25.9","44.7","29.89","302","4.7","20","0.00","0.00"
"19:09:59","45.9","24.4","42.5","29.89","307","7.5","23","0.00","0.00"
"19:14:58","45.6","24.7","43.5","29.89","298","4.9","12","0.00","0.00"
"19:19:56","45.3","23.8","42.5","29.89","300","8.2","16","0.00","0.00"
"19:24:57","45.1","24.5","44","29.89","290","4.2","16.1","0.00","0.00"
"19:29:47","44.9","24.6","44.6","29.90","281","5","19.6","0.00","0.00"
"19:34:57","44.6","23.9","43.8","29.90","297","7.2","16.1","0.00","0.00"
"19:39:57","44.5","24.4","44.8","29.90","314","4.5","13.8","0.00","0.00"
"19:44:59","44.3","24.2","44.8","29.90","325","5.6","14","0.00","0.00"
"19:49:45","44.2","24.5","45.7","29.90","289","3.9","10.4","0.00","0.00"
"19:54:56","44","24.5","46","29.90","297","5.1","11.5","0.00","0.00"
"19:59:59","43.7","24.1","45.8","29.91","303","6.1","14","0.00","0.00"
"20:04:55","43.6","24.3","46.3","29.91","308","4.5","12.7","0.00","0.00"
"20:09:59","43.3","24.1","46.3","29.91","291","5.2","13","0.00","0.00"
"20:14:57","43.1","24.1","46.8","29.92","297","5.4","15","0.00","0.00"
"20:19:48","42.9","24.7","48.4","29.92","285","3.8","15","0.00","0.00"
"20:24:56","42.7","24.5","48.4","29.92","327","4.6","10.4","0.00","0.00"
"20:29:31","42.6","24.7","48.8","29.93","316","3.8","11.5","0.00","0.00"
"20:34:35","42.4","24.9","49.5","29.93","314","4.4","11.5","0.00","0.00"
"20:39:49","42.3","25","50.1","29.93","300","3.3","10","0.00","0.00"
"20:44:56","42.1","25.1","50.6","29.94","314","3.1","9.2","0.00","0.00"
"20:49:57","42","25.2","51.1","29.94","323","2.7","9.2","0.00","0.00"
"20:54:57","41.8","25.4","51.9","29.94","312","1.7","7","0.00","0.00"
"20:59:56","41.6","25.4","52.5","29.94","286","2.3","6.9","0.00","0.00"
"21:04:40","41.3","25.4","53","29.94","277","1.8","5","0.00","0.00"
"21:09:08","41.2","25.7","53.9","29.94","289","2.2","5","0.00","0.00"
"21:14:30","41","25.6","54","29.95","284","3.3","10","0.00","0.00"
"21:19:30","41.1","25.5","53.6","29.95","308","4.1","10","0.00","0.00"
"21:24:58","41.1","25.2","52.9","29.95","313","4.6","15","0.00","0.00"
"21:29:41","41.2","24.6","51.4","29.96","297","4.5","12","0.00","0.00"
"21:34:56","41.2","24.3","50.8","29.96","294","4.5","12","0.00","0.00"
"21:39:58","41.2","23.9","50.1","29.96","319","4.7","14","0.00","0.00"
"21:44:21","41.2","23.9","50","29.97","291","5.2","13.8","0.00","0.00"
"21:49:57","41.1","23.9","50","29.97","289","4.2","9","0.00","0.00"
"21:54:58","41","23.9","50.2","29.97","291","5.4","13","0.00","0.00"
"21:59:58","40.9","23.9","50.4","29.97","294","3.1","14","0.00","0.00"
"22:04:38","40.8","23.6","50","29.97","304","4.9","12","0.00","0.00"
"22:09:58","40.7","23.1","49.2","29.97","287","5","10.4","0.00","0.00"
"22:14:57","40.6","23","49.1","29.97","289","4.3","14","0.00","0.00"
"22:19:56","40.6","22.8","48.8","29.97","272","5.6","15","0.00","0.00"
"22:24:43","40.6","22.4","48","29.97","282","5.9","16.1","0.00","0.00"
"22:29:59","40.5","22.7","48.8","29.98","305","5.8","16.1","0.00","0.00"
"22:34:58","40.5","22.5","48.3","29.98","313","6.2","14","0.00","0.00"
"22:39:56","40.4","22.7","49.1","29.98","293","6.9","21","0.00","0.00"
"22:44:51","40.4","22.7","49","29.98","271","6.6","18.4","0.00","0.00"
"22:49:59","40.3","22.6","49","29.98","293","5.2","12.7","0.00","0.00"
"22:54:58","40.2","22.4","48.8","29.98","313","6.3","15","0.00","0.00"
"22:59:58","40","22.5","49.3","29.98","308","5.4","14","0.00","0.00"
"23:04:49","40","22.4","49.2","29.98","306","4.6","10.4","0.00","0.00"
"23:09:57","39.7","22.7","50.1","29.98","299","4.4","13","0.00","0.00"
"23:14:58","39.6","22.6","50.2","29.99","308","4.6","12.7","0.00","0.00"
"23:19:57","39.4","22.6","50.7","29.99","275","3.9","11.5","0.00","0.00"
"23:24:56","39.2","22.6","51","29.99","323","3.6","10","0.00","0.00"
"23:29:59","39.1","22.5","51.1","29.99","288","4.3","10.4","0.00","0.00"
"23:34:58","39","22.3","50.9","29.99","310","4.6","17.3","0.00","0.00"
"23:39:59","38.9","22.3","51","29.99","307","4.2","13","0.00","0.00"
"23:44:59","38.8","22.2","51","29.99","323","4.6","12","0.00","0.00"
"23:49:58","38.8","22.5","51.6","29.99","314","2.7","11.5","0.00","0.00"
"23:54:53","38.6","22.5","52","29.99","302","2.8","6","0.00","0.00"
"23:59:56","38.4","22.4","52.3","29.99","312","4.2","11.5","0.00","0.00"
